カタログに戻る

METEOR 2-6 DEB

運用中PO
NORAD 28987·DEBRIS·🇷🇺 Russia

打ち上げ Sep 9, 1980 から Plesetsk Cosmodrome

Loading…

次のパス (今後24時間)

TLE

経年Source: Space-Track

元期: Sep 10, 2026, 09:07 UTC

1 28987U 80073D   26253.38043318  .00019466  00000-0  19652-2 0  9991
2 28987  81.1801 128.9009 0008444 336.1041  23.9781 14.90946864121300

AllMySatでMETEOR 2-6 DEBをリアルタイム追跡

Download on the App Store